When you browse on this site, cookies collect data to enhance your experience and personalize the content and advertising you see.
Visit our Privacy Policy to learn more. By continuing to use the site, you agree to this use of cookies and data.
  • In Netherlands
  • List of Countries
  • For 7 days
  • Water Temperature
  • Weather Map
  • Weather Widgets
  • user-avatar
    Login

    Hourly Weather Ouahigouya

    Today, 28 May, Thursday

    Time Temperature Precipitation Wind Pressure Humidity
    00:00 +36°C° 0 mm 2 mps 730 mmHg 25%
    01:00 +36°C° 0 mm 3 mps 729 mmHg 26%
    02:00 +35°C° 0 mm 3 mps 729 mmHg 27%
    03:00 +34°C° 0 mm 3 mps 728 mmHg 28%
    04:00 +34°C° 0 mm 3 mps 729 mmHg 29%
    05:00 +34°C° 0 mm 3 mps 729 mmHg 30%
    06:00 +33°C° 0 mm 3 mps 729 mmHg 31%
    07:00 +34°C° 0 mm 4 mps 730 mmHg 30%
    08:00 +36°C° 0 mm 4 mps 730 mmHg 28%
    09:00 +37°C° 0 mm 5 mps 731 mmHg 26%
    10:00 +38°C° 0 mm 4 mps 731 mmHg 26%
    11:00 +38°C° 0 mm 4 mps 730 mmHg 26%
    12:00 +39°C° 0 mm 3 mps 730 mmHg 26%
    13:00 +40°C° 0 mm 3 mps 729 mmHg 25%
    14:00 +40°C° 0 mm 3 mps 729 mmHg 25%
    15:00 +42°C° 0 mm 3 mps 728 mmHg 24%
    16:00 +41°C° 0 mm 4 mps 728 mmHg 24%
    17:00 +41°C° 0 mm 4 mps 728 mmHg 25%
    18:00 +41°C° 0 mm 4 mps 727 mmHg 25%
    19:00 +40°C° 0.1 mm 4 mps 728 mmHg 27%
    20:00 +38°C° 0.1 mm 3 mps 728 mmHg 30%
    21:00 +37°C° 0.1 mm 3 mps 729 mmHg 32%
    22:00 +37°C° 0 mm 4 mps 729 mmHg 33%
    23:00 +36°C° 0 mm 4 mps 729 mmHg 34%

    Tomorrow, 29 May, Friday

    Time Temperature Precipitation Wind Pressure Humidity
    00:00 +36°C° 0 mm 4 mps 729 mmHg 35%
    01:00 +35°C° 0.4 mm 3 mps 729 mmHg 37%
    02:00 +35°C° 0.4 mm 2 mps 728 mmHg 38%
    03:00 +33°C° 0.4 mm 1 mps 728 mmHg 39%
    04:00 +33°C° 0.3 mm 1 mps 728 mmHg 40%
    05:00 +33°C° 0.3 mm 1 mps 728 mmHg 41%
    06:00 +32°C° 0.3 mm 1 mps 728 mmHg 42%
    07:00 +33°C° 0 mm 1 mps 729 mmHg 39%
    08:00 +34°C° 0 mm 1 mps 729 mmHg 36%
    09:00 +35°C° 0 mm 1 mps 729 mmHg 33%
    10:00 +37°C° 0 mm 2 mps 729 mmHg 31%
    11:00 +38°C° 0 mm 2 mps 729 mmHg 29%
    12:00 +39°C° 0 mm 3 mps 729 mmHg 26%
    13:00 +40°C° 0 mm 3 mps 728 mmHg 25%
    14:00 +40°C° 0 mm 3 mps 727 mmHg 25%
    15:00 +40°C° 0 mm 3 mps 727 mmHg 24%
    16:00 +40°C° 0 mm 2 mps 727 mmHg 24%
    17:00 +40°C° 0 mm 2 mps 726 mmHg 24%
    18:00 +40°C° 0 mm 1 mps 726 mmHg 24%
    19:00 +39°C° 0 mm 1 mps 727 mmHg 26%
    20:00 +39°C° 0 mm 1 mps 727 mmHg 28%
    21:00 +37°C° 0 mm 1 mps 728 mmHg 30%
    22:00 +37°C° 0 mm 2 mps 728 mmHg 33%
    23:00 +37°C° 0 mm 2 mps 728 mmHg 35%

    Day after tomorrow, 30 May, Saturday

    Time Temperature Precipitation Wind Pressure Humidity
    00:00 +36°C° 0 mm 3 mps 728 mmHg 38%
    01:00 +36°C° 0 mm 3 mps 727 mmHg 40%
    02:00 +35°C° 0 mm 4 mps 727 mmHg 42%
    03:00 +35°C° 0 mm 4 mps 726 mmHg 43%
    04:00 +34°C° 0 mm 4 mps 727 mmHg 46%
    05:00 +34°C° 0 mm 4 mps 727 mmHg 48%
    06:00 +33°C° 0 mm 4 mps 727 mmHg 51%
    07:00 +34°C° 0 mm 4 mps 728 mmHg 49%
    08:00 +35°C° 0 mm 5 mps 728 mmHg 46%
    09:00 +36°C° 0 mm 5 mps 729 mmHg 44%
    10:00 +37°C° 0 mm 5 mps 729 mmHg 40%
    11:00 +40°C° 0 mm 4 mps 729 mmHg 36%
    12:00 +41°C° 0 mm 4 mps 728 mmHg 32%
    13:00 +42°C° 0 mm 3 mps 728 mmHg 29%
    14:00 +41°C° 0 mm 2 mps 727 mmHg 27%
    15:00 +42°C° 0 mm 2 mps 726 mmHg 24%
    16:00 +41°C° 0.1 mm 2 mps 726 mmHg 25%
    17:00 +41°C° 0.1 mm 2 mps 726 mmHg 26%
    18:00 +40°C° 0.1 mm 2 mps 726 mmHg 27%
    19:00 +39°C° 0.1 mm 3 mps 727 mmHg 29%
    20:00 +38°C° 0.1 mm 3 mps 727 mmHg 32%
    21:00 +37°C° 0.1 mm 4 mps 728 mmHg 34%
    22:00 +36°C° 0.6 mm 4 mps 728 mmHg 37%
    23:00 +35°C° 0.6 mm 4 mps 728 mmHg 40%

    31 May, Sunday

    Time Temperature Precipitation Wind Pressure Humidity
    00:00 +34°C° 0.6 mm 3 mps 728 mmHg 43%
    01:00 +34°C° 0.3 mm 4 mps 728 mmHg 45%
    02:00 +34°C° 0.3 mm 4 mps 728 mmHg 46%
    03:00 +33°C° 0.3 mm 4 mps 728 mmHg 48%
    04:00 +34°C° 0 mm 5 mps 728 mmHg 48%
    05:00 +34°C° 0 mm 6 mps 728 mmHg 47%
    06:00 +34°C° 0 mm 7 mps 729 mmHg 47%
    07:00 +34°C° 0 mm 6 mps 729 mmHg 46%
    08:00 +34°C° 0 mm 6 mps 729 mmHg 45%
    09:00 +35°C° 0 mm 6 mps 730 mmHg 44%
    10:00 +36°C° 0 mm 5 mps 730 mmHg 39%
    11:00 +37°C° 0 mm 4 mps 729 mmHg 35%
    12:00 +39°C° 0 mm 3 mps 729 mmHg 31%
    13:00 +40°C° 0 mm 2 mps 729 mmHg 29%
    14:00 +41°C° 0 mm 1 mps 728 mmHg 26%
    15:00 +41°C° 0 mm 1 mps 727 mmHg 24%
    16:00 +42°C° 0 mm 1 mps 727 mmHg 24%
    17:00 +42°C° 0 mm 1 mps 727 mmHg 23%
    18:00 +42°C° 0 mm 2 mps 727 mmHg 23%
    19:00 +41°C° 0 mm 2 mps 728 mmHg 26%
    20:00 +40°C° 0 mm 3 mps 728 mmHg 28%
    21:00 +40°C° 0 mm 4 mps 728 mmHg 31%
    22:00 +40°C° 0 mm 4 mps 728 mmHg 32%
    23:00 +38°C° 0 mm 4 mps 728 mmHg 33%

    1 June, Monday

    Time Temperature Precipitation Wind Pressure Humidity
    00:00 +38°C° 0 mm 3 mps 728 mmHg 34%
    01:00 +37°C° 0 mm 3 mps 728 mmHg 35%
    02:00 +37°C° 0 mm 3 mps 728 mmHg 36%
    03:00 +36°C° 0 mm 2 mps 728 mmHg 37%
    04:00 +36°C° 0 mm 2 mps 728 mmHg 39%
    05:00 +35°C° 0 mm 3 mps 728 mmHg 41%
    06:00 +35°C° 0 mm 3 mps 728 mmHg 43%
    07:00 +36°C° 0 mm 4 mps 729 mmHg 40%
    08:00 +37°C° 0 mm 5 mps 729 mmHg 37%
    09:00 +40°C° 0 mm 6 mps 729 mmHg 34%
    10:00 +41°C° 0 mm 5 mps 729 mmHg 31%
    11:00 +42°C° 0 mm 5 mps 729 mmHg 29%
    12:00 +43°C° 0 mm 5 mps 728 mmHg 26%
    13:00 +44°C° 0 mm 4 mps 728 mmHg 24%
    14:00 +44°C° 0 mm 3 mps 727 mmHg 22%
    15:00 +45°C° 0 mm 3 mps 726 mmHg 19%
    16:00 +44°C° 0 mm 3 mps 726 mmHg 20%
    17:00 +44°C° 0 mm 3 mps 726 mmHg 21%
    18:00 +43°C° 0 mm 4 mps 726 mmHg 22%
    19:00 +42°C° 0 mm 4 mps 726 mmHg 24%
    20:00 +40°C° 0 mm 5 mps 726 mmHg 26%
    21:00 +39°C° 0 mm 6 mps 727 mmHg 28%
    22:00 +39°C° 0 mm 5 mps 727 mmHg 28%
    23:00 +39°C° 0 mm 5 mps 727 mmHg 29%

    2 June, Tuesday

    Time Temperature Precipitation Wind Pressure Humidity
    00:00 +38°C° 0 mm 4 mps 727 mmHg 29%
    01:00 +37°C° 0 mm 5 mps 727 mmHg 34%
    02:00 +36°C° 0 mm 6 mps 727 mmHg 38%
    03:00 +35°C° 0 mm 7 mps 726 mmHg 43%
    04:00 +35°C° 0 mm 7 mps 727 mmHg 44%
    05:00 +34°C° 0 mm 7 mps 727 mmHg 46%
    06:00 +34°C° 0 mm 6 mps 728 mmHg 47%
    07:00 +35°C° 0 mm 7 mps 728 mmHg 45%
    08:00 +36°C° 0 mm 7 mps 728 mmHg 43%
    09:00 +38°C° 0 mm 8 mps 729 mmHg 40%
    10:00 +39°C° 0 mm 7 mps 728 mmHg 36%
    11:00 +41°C° 0 mm 7 mps 728 mmHg 32%
    12:00 +44°C° 0 mm 7 mps 728 mmHg 28%
    13:00 +44°C° 0 mm 7 mps 727 mmHg 26%
    14:00 +45°C° 0 mm 6 mps 727 mmHg 25%
    15:00 +45°C° 0 mm 5 mps 726 mmHg 23%
    16:00 +45°C° 0 mm 5 mps 726 mmHg 23%
    17:00 +44°C° 0 mm 4 mps 726 mmHg 23%
    18:00 +44°C° 0 mm 4 mps 726 mmHg 23%
    19:00 +43°C° 0 mm 4 mps 726 mmHg 25%
    20:00 +42°C° 0 mm 4 mps 726 mmHg 26%
    21:00 +41°C° 0 mm 5 mps 727 mmHg 28%
    22:00 +40°C° 0 mm 6 mps 727 mmHg 31%
    23:00 +39°C° 0 mm 7 mps 727 mmHg 35%
    Show more